This is the latest recevied weather packets stored in our database for station/object K9YK-13. If no packets are shown the sender has not sent any weather packets the latest 10 day(s).
| Time | Temp. | Humidity | Pressure | Rain* | Wind** | Luminosity | Snow |
|---|---|---|---|---|---|---|---|
| 1778163369 | 13.89° C | 60% | 0 hPa | 0 mm | - | - | - |
| 1778163069 | 13.33° C | 58% | 0 hPa | 0 mm | - | - | - |
| 1778162769 | 12.78° C | 59% | 0 hPa | 0 mm | - | - | - |
| 1778162469 | 12.22° C | 60% | 0 hPa | 0 mm | - | - | - |
| 1778162169 | 11.67° C | 66% | 0 hPa | 0 mm | - | - | - |
| 1778161869 | 11.11° C | 66% | 0 hPa | 0 mm | - | - | - |
| 1778161569 | 12.22° C | 67% | 0 hPa | 0 mm | - | - | - |
| 1778161269 | 12.22° C | 70% | 0 hPa | 0 mm | - | - | - |
| 1778160969 | 11.11° C | 72% | 0 hPa | 0 mm | - | - | - |
| 1778160669 | 11.11° C | 77% | 0 hPa | 0 mm | - | - | - |
| 1778160369 | 9.44° C | 81% | 0 hPa | 0 mm | - | - | - |
| 1778160069 | 8.89° C | 84% | 0 hPa | 0 mm | - | - | - |
| 1778159769 | 10° C | 76% | 0 hPa | 0 mm | - | - | - |
| 1778159469 | 10° C | 78% | 0 hPa | 0 mm | - | - | - |
| 1778159169 | 8.89° C | 82% | 0 hPa | 0 mm | - | - | - |
| 1778158869 | 8.89° C | 80% | 0 hPa | 0 mm | - | - | - |
| 1778158569 | 7.22° C | 80% | 0 hPa | 0 mm | - | - | - |
| 1778158269 | 8.33° C | 74% | 0 hPa | 0 mm | - | - | - |
| 1778157969 | 7.22° C | 85% | 0 hPa | 0 mm | - | - | - |
| 1778157669 | 7.22° C | 88% | 0 hPa | 0 mm | - | - | - |
| 1778157369 | 5.56° C | 85% | 0 hPa | 0 mm | - | - | - |
| 1778157069 | 8.33° C | 95% | 0 hPa | 0 mm | - | - | - |
| 1778156769 | 7.22° C | 96% | 0 hPa | 0 mm | - | - | - |
| 1778156469 | 6.11° C | 97% | 0 hPa | 0 mm | - | - | - |
| 1778156169 | 5.56° C | 97% | 0 hPa | 0 mm | - | - | - |
* Rain latest hour (hover to see other rain measurements)
** Current wind speed in m/s (hover to see current wind gust speed)